| time (UTC) | temp F | wind direction | speed MPH | gust MPH | rain 1hr in | rain 24hr in | rain mn in | humidity % | barometer mb |
| 20260504050405 | 61 | 275 | 12.0 | 20.0 | 0.00 | 0.11 | 0.10 | 79 | 1011.5 |
| 20260504045905 | 62 | 288 | 15.0 | 23.0 | 0.00 | 0.11 | 0.10 | 79 | 1011.4 |
| 20260504045404 | 62 | 275 | 14.0 | 25.0 | 0.00 | 0.11 | 0.10 | 80 | 1011.4 |
| 20260504044905 | 61 | 285 | 10.0 | 15.0 | 0.00 | 0.11 | 0.10 | 81 | 1011.2 |
| 20260504044405 | 60 | 289 | 12.0 | 18.0 | 0.00 | 0.11 | 0.10 | 81 | 1011.2 |
| 20260504043904 | 59 | 282 | 12.0 | 18.0 | 0.00 | 0.11 | 0.10 | 81 | 1011.2 |
| 20260504043404 | 59 | 279 | 10.0 | 18.0 | 0.00 | 0.11 | 0.10 | 81 | 1011.2 |
| 20260504042905 | 59 | 284 | 17.0 | 28.0 | 0.00 | 0.11 | 0.10 | 79 | 1011.1 |
| 20260504042404 | 61 | 280 | 15.0 | 23.0 | 0.00 | 0.11 | 0.10 | 78 | 1011.1 |
| 20260504041904 | 61 | 264 | 12.0 | 18.0 | 0.00 | 0.11 | 0.10 | 77 | 1010.9 |
| 20260504041405 | 61 | 276 | 13.0 | 26.0 | 0.00 | 0.11 | 0.10 | 77 | 1010.8 |
| 20260504040905 | 63 | 266 | 16.0 | 29.0 | 0.00 | 0.11 | 0.10 | 73 | 1010.8 |
| 20260504040404 | 64 | 283 | 20.0 | 26.0 | 0.00 | 0.11 | 0.10 | 72 | 1010.4 |
| 20260504035905 | 65 | 285 | 15.0 | 26.0 | 0.00 | 0.11 | 0.10 | 72 | 1010.4 |
| 20260504035404 | 64 | 291 | 13.0 | 21.0 | 0.00 | 0.11 | 0.10 | 73 | 1010.3 |
| 20260504034904 | 64 | 291 | 16.0 | 26.0 | 0.00 | 0.11 | 0.10 | 71 | 1010.4 |
| 20260504034405 | 64 | 295 | 17.0 | 26.0 | 0.00 | 0.11 | 0.10 | 71 | 1010.3 |
| 20260504033904 | 63 | 275 | 18.0 | 26.0 | 0.01 | 0.11 | 0.10 | 72 | 1010.3 |
| 20260504033405 | 63 | 287 | 21.0 | 26.0 | 0.01 | 0.11 | 0.10 | 74 | 1010.2 |
| 20260504032904 | 64 | 292 | 16.0 | 25.0 | 0.01 | 0.11 | 0.10 | 77 | 1010.2 |
| 20260504032405 | 63 | 288 | 18.0 | 26.0 | 0.01 | 0.11 | 0.10 | 76 | 1010.2 |
| 20260504031904 | 63 | 297 | 14.0 | 25.0 | 0.01 | 0.11 | 0.10 | 76 | 1010.3 |
| 20260504031404 | 62 | 287 | 16.0 | 25.0 | 0.01 | 0.11 | 0.10 | 78 | 1010.4 |
| 20260504030904 | 62 | 290 | 16.0 | 25.0 | 0.01 | 0.11 | 0.10 | 80 | 1010.4 |
| 20260504030404 | 62 | 292 | 13.0 | 24.0 | 0.01 | 0.11 | 0.10 | 82 | 1010.4 |
| 20260504025904 | 61 | 274 | 14.0 | 23.0 | 0.01 | 0.11 | 0.10 | 82 | 1010.5 |
| 20260504025404 | 60 | 277 | 14.0 | 21.0 | 0.01 | 0.11 | 0.10 | 84 | 1010.5 |
| 20260504024904 | 58 | 293 | 13.0 | 23.0 | 0.01 | 0.11 | 0.10 | 85 | 1010.6 |
| 20260504024404 | 59 | 296 | 13.0 | 21.0 | 0.01 | 0.11 | 0.10 | 84 | 1010.7 |
| 20260504023904 | 59 | 283 | 14.0 | 22.0 | 0.00 | 0.10 | 0.09 | 83 | 1010.8 |
| 20260504023405 | 60 | 277 | 16.0 | 22.0 | 0.00 | 0.10 | 0.09 | 82 | 1010.8 |
| 20260504022904 | 60 | 294 | 10.0 | 20.0 | 0.00 | 0.10 | 0.09 | 82 | 1010.8 |
| 20260504022404 | 59 | 287 | 12.0 | 17.0 | 0.00 | 0.10 | 0.09 | 81 | 1010.8 |
| 20260504021905 | 59 | 300 | 13.0 | 22.0 | 0.00 | 0.10 | 0.09 | 79 | 1010.8 |
| 20260504021405 | 61 | 303 | 12.0 | 23.0 | 0.02 | 0.10 | 0.09 | 84 | 1010.8 |
| 20260504020904 | 61 | 297 | 12.0 | 17.0 | 0.04 | 0.10 | 0.09 | 85 | 1010.6 |
| 20260504020404 | 60 | 298 | 11.0 | 20.0 | 0.06 | 0.10 | 0.09 | 86 | 1010.6 |
| 20260504015905 | 60 | 306 | 10.0 | 15.0 | 0.06 | 0.10 | 0.09 | 87 | 1010.6 |
| 20260504015405 | 59 | 320 | 8.0 | 13.0 | 0.06 | 0.10 | 0.09 | 87 | 1010.6 |
| 20260504014904 | 58 | 317 | 6.0 | 10.0 | 0.06 | 0.10 | 0.09 | 87 | 1010.6 |
| 20260504014404 | 57 | 321 | 7.0 | 10.0 | 0.06 | 0.10 | 0.09 | 87 | 1010.7 |
| 20260504013904 | 57 | 313 | 6.0 | 12.0 | 0.06 | 0.10 | 0.09 | 87 | 1010.7 |
| 20260504013404 | 57 | 308 | 9.0 | 13.0 | 0.06 | 0.10 | 0.09 | 86 | 1010.8 |
| 20260504012904 | 57 | 314 | 9.0 | 13.0 | 0.07 | 0.10 | 0.09 | 87 | 1010.7 |
| 20260504012405 | 57 | 314 | 12.0 | 16.0 | 0.07 | 0.10 | 0.09 | 87 | 1010.7 |
| 20260504011905 | 58 | 321 | 13.0 | 23.0 | 0.07 | 0.10 | 0.09 | 87 | 1010.6 |
| 20260504011404 | 59 | 311 | 12.0 | 24.0 | 0.06 | 0.09 | 0.08 | 86 | 1010.5 |
| 20260504010904 | 60 | 325 | 16.0 | 23.0 | 0.04 | 0.06 | 0.06 | 85 | 1010.4 |
| 20260504010404 | 60 | 341 | 10.0 | 14.0 | 0.02 | 0.04 | 0.03 | 87 | 1010.2 |
| 20260504005904 | 59 | 326 | 10.0 | 14.0 | 0.02 | 0.04 | 0.03 | 87 | 1010.3 |
| 20260504005405 | 59 | 335 | 12.0 | 18.0 | 0.03 | 0.04 | 0.03 | 87 | 1010.3 |
| 20260504004904 | 59 | 332 | 10.0 | 16.0 | 0.03 | 0.04 | 0.03 | 87 | 1010.3 |
| 20260504004405 | 59 | 327 | 11.0 | 16.0 | 0.03 | 0.04 | 0.03 | 87 | 1010.3 |
| 20260504003905 | 58 | 345 | 12.0 | 20.0 | 0.03 | 0.04 | 0.03 | 87 | 1010.3 |
| 20260504003404 | 58 | 333 | 13.0 | 17.0 | 0.03 | 0.04 | 0.03 | 87 | 1010.3 |
| 20260504002904 | 58 | 339 | 12.0 | 17.0 | 0.01 | 0.03 | 0.02 | 88 | 1010.3 |
| 20260504002404 | 57 | 326 | 9.0 | 15.0 | 0.01 | 0.03 | 0.02 | 88 | 1010.3 |
| 20260504001904 | 57 | 329 | 12.0 | 15.0 | 0.01 | 0.03 | 0.02 | 88 | 1010.3 |
| 20260504001404 | 57 | 324 | 9.0 | 12.0 | 0.01 | 0.03 | 0.02 | 88 | 1010.3 |
| 20260504000904 | 57 | 334 | 13.0 | 20.0 | 0.02 | 0.02 | 0.02 | 87 | 1010.2 |
| 20260504000404 | 57 | 329 | 10.0 | 16.0 | 0.01 | 0.02 | 0.01 | 87 | 1010.2 |
| 20260503235904 | 57 | 328 | 11.0 | 15.0 | 0.01 | 0.02 | 0.01 | 87 | 1010.2 |
| 20260503235404 | 57 | 327 | 10.0 | 16.0 | 0.00 | 0.01 | 0.00 | 87 | 1010.1 |
| 20260503234904 | 57 | 337 | 13.0 | 17.0 | 0.00 | 0.01 | 0.00 | 88 | 1010.1 |
| 20260503234405 | 56 | 334 | 11.0 | 18.0 | 0.01 | 0.01 | 0.00 | 87 | 1010.0 |
| 20260503233904 | 56 | 343 | 11.0 | 17.0 | 0.01 | 0.01 | 0.00 | 88 | 1010.0 |
| 20260503233404 | 56 | 338 | 9.0 | 15.0 | 0.01 | 0.02 | 0.00 | 88 | 1010.0 |
| 20260503232904 | 55 | 340 | 10.0 | 15.0 | 0.01 | 0.02 | 0.02 | 88 | 1009.9 |
| 20260503232404 | 55 | 347 | 9.0 | 14.0 | 0.01 | 0.02 | 0.02 | 88 | 1009.9 |
| 20260503231904 | 55 | 333 | 8.0 | 14.0 | 0.01 | 0.02 | 0.02 | 88 | 1009.9 |
| 20260503231404 | 54 | 339 | 12.0 | 20.0 | 0.01 | 0.02 | 0.02 | 88 | 1009.9 |
| 20260503230904 | 54 | 339 | 11.0 | 15.0 | 0.01 | 0.02 | 0.02 | 88 | 1009.9 |
| 20260503230404 | 54 | 339 | 10.0 | 14.0 | 0.01 | 0.02 | 0.02 | 88 | 1009.9 |
| 20260503225905 | 54 | 337 | 12.0 | 17.0 | 0.01 | 0.02 | 0.02 | 88 | 1009.8 |
| 20260503225404 | 54 | 353 | 9.0 | 15.0 | 0.01 | 0.02 | 0.02 | 88 | 1009.7 |
| 20260503224904 | 54 | 338 | 9.0 | 17.0 | 0.01 | 0.02 | 0.02 | 88 | 1009.7 |
| 20260503224404 | 54 | 350 | 8.0 | 14.0 | 0.00 | 0.01 | 0.01 | 87 | 1009.6 |
| 20260503223905 | 54 | 352 | 9.0 | 15.0 | 0.00 | 0.01 | 0.01 | 87 | 1009.6 |
| 20260503223403 | 54 | 343 | 10.0 | 17.0 | 0.00 | 0.01 | 0.01 | 87 | 1009.6 |
| 20260503222904 | 54 | 353 | 12.0 | 17.0 | 0.00 | 0.01 | 0.01 | 87 | 1009.5 |
| 20260503222404 | 54 | 352 | 9.0 | 13.0 | 0.00 | 0.01 | 0.01 | 87 | 1009.5 |
| 20260503221905 | 54 | 347 | 12.0 | 17.0 | 0.00 | 0.01 | 0.01 | 87 | 1009.4 |
| 20260503221404 | 53 | 355 | 12.0 | 17.0 | 0.00 | 0.01 | 0.01 | 87 | 1009.4 |
| 20260503220905 | 53 | 353 | 10.0 | 17.0 | 0.00 | 0.01 | 0.01 | 87 | 1009.4 |
| 20260503220404 | 53 | 344 | 9.0 | 16.0 | 0.00 | 0.01 | 0.01 | 87 | 1009.3 |
| 20260503215904 | 53 | 349 | 10.0 | 15.0 | 0.00 | 0.01 | 0.01 | 87 | 1009.1 |
| 20260503215404 | 53 | 350 | 10.0 | 15.0 | 0.00 | 0.01 | 0.01 | 87 | 1009.1 |
| 20260503214904 | 53 | 356 | 12.0 | 17.0 | 0.00 | 0.01 | 0.01 | 87 | 1009.1 |
| 20260503214404 | 53 | 354 | 12.0 | 18.0 | 0.00 | 0.01 | 0.01 | 87 | 1009.0 |
| 20260503213904 | 53 | 358 | 12.0 | 16.0 | 0.00 | 0.01 | 0.01 | 87 | 1009.1 |
| 20260503213404 | 54 | 355 | 10.0 | 16.0 | 0.00 | 0.01 | 0.01 | 86 | 1009.0 |
| 20260503212904 | 54 | 348 | 10.0 | 17.0 | 0.00 | 0.01 | 0.01 | 86 | 1009.0 |
| 20260503212404 | 54 | 350 | 9.0 | 15.0 | 0.00 | 0.01 | 0.01 | 86 | 1009.0 |
| 20260503211904 | 54 | 355 | 11.0 | 15.0 | 0.00 | 0.01 | 0.01 | 86 | 1008.8 |
| 20260503211404 | 54 | 344 | 10.0 | 17.0 | 0.00 | 0.01 | 0.01 | 86 | 1008.8 |
| 20260503210904 | 54 | 357 | 12.0 | 20.0 | 0.00 | 0.01 | 0.01 | 86 | 1008.7 |
| 20260503210404 | 54 | 352 | 11.0 | 16.0 | 0.00 | 0.01 | 0.01 | 86 | 1008.8 |
| 20260503205904 | 54 | 0 | 10.0 | 16.0 | 0.00 | 0.01 | 0.01 | 86 | 1008.8 |
| 20260503205404 | 54 | 358 | 11.0 | 17.0 | 0.00 | 0.01 | 0.01 | 86 | 1008.8 |
| 20260503204904 | 54 | 354 | 10.0 | 17.0 | 0.00 | 0.01 | 0.01 | 86 | 1008.8 |
| 20260503204404 | 54 | 0 | 12.0 | 20.0 | 0.00 | 0.01 | 0.01 | 86 | 1008.7 |
| 20260503203904 | 54 | 6 | 9.0 | 14.0 | 0.00 | 0.01 | 0.01 | 86 | 1008.7 |
| 20260503203405 | 54 | 349 | 9.0 | 13.0 | 0.00 | 0.01 | 0.01 | 86 | 1008.7 |
| 20260503202905 | 54 | 356 | 10.0 | 17.0 | 0.00 | 0.01 | 0.01 | 86 | 1008.6 |
| 20260503202405 | 54 | 11 | 10.0 | 15.0 | 0.00 | 0.01 | 0.01 | 86 | 1008.5 |
| 20260503201906 | 54 | 8 | 10.0 | 16.0 | 0.00 | 0.01 | 0.01 | 86 | 1008.5 |
| 20260503201406 | 54 | 7 | 9.0 | 16.0 | 0.00 | 0.01 | 0.01 | 86 | 1008.5 |
| 20260503200905 | 54 | 353 | 9.0 | 15.0 | 0.00 | 0.01 | 0.01 | 86 | 1008.5 |
| 20260503200405 | 54 | 353 | 10.0 | 17.0 | 0.00 | 0.01 | 0.01 | 86 | 1008.5 |
| 20260503195905 | 54 | 352 | 8.0 | 12.0 | 0.00 | 0.01 | 0.01 | 86 | 1008.5 |
| 20260503195405 | 54 | 342 | 7.0 | 13.0 | 0.00 | 0.01 | 0.01 | 86 | 1008.5 |
| 20260503194905 | 54 | 349 | 7.0 | 20.0 | 0.00 | 0.01 | 0.01 | 86 | 1008.5 |
| 20260503194405 | 54 | 356 | 10.0 | 15.0 | 0.00 | 0.01 | 0.01 | 86 | 1008.5 |
| 20260503193906 | 54 | 358 | 9.0 | 14.0 | 0.00 | 0.01 | 0.01 | 86 | 1008.5 |
| 20260503193406 | 54 | 1 | 10.0 | 17.0 | 0.00 | 0.01 | 0.01 | 86 | 1008.5 |
| 20260503192905 | 53 | 350 | 7.0 | 12.0 | 0.00 | 0.01 | 0.01 | 86 | 1008.5 |
| 20260503192405 | 53 | 2 | 9.0 | 15.0 | 0.00 | 0.01 | 0.01 | 86 | 1008.5 |
| 20260503191906 | 53 | 351 | 12.0 | 17.0 | 0.00 | 0.01 | 0.01 | 86 | 1008.5 |
| 20260503191405 | 53 | 8 | 11.0 | 17.0 | 0.00 | 0.01 | 0.01 | 86 | 1008.4 |
| 20260503190905 | 53 | 5 | 9.0 | 15.0 | 0.00 | 0.01 | 0.01 | 86 | 1008.5 |
| 20260503190405 | 53 | 9 | 9.0 | 14.0 | 0.00 | 0.01 | 0.01 | 86 | 1008.5 |
| 20260503185906 | 53 | 7 | 7.0 | 13.0 | 0.00 | 0.01 | 0.01 | 86 | 1008.5 |
| 20260503185406 | 53 | 358 | 7.0 | 12.0 | 0.00 | 0.01 | 0.01 | 86 | 1008.5 |
| 20260503184905 | 53 | 9 | 8.0 | 12.0 | 0.00 | 0.01 | 0.01 | 86 | 1008.4 |
| 20260503184406 | 53 | 356 | 9.0 | 12.0 | 0.00 | 0.01 | 0.01 | 86 | 1008.3 |
| 20260503183905 | 53 | 0 | 9.0 | 14.0 | 0.00 | 0.01 | 0.01 | 85 | 1008.2 |
| 20260503183405 | 53 | 8 | 9.0 | 13.0 | 0.00 | 0.01 | 0.01 | 85 | 1008.3 |
| 20260503182905 | 53 | 6 | 9.0 | 14.0 | 0.00 | 0.01 | 0.01 | 85 | 1008.2 |
| 20260503182405 | 53 | 356 | 9.0 | 13.0 | 0.00 | 0.01 | 0.01 | 85 | 1008.2 |
| 20260503181905 | 53 | 357 | 7.0 | 13.0 | 0.00 | 0.01 | 0.01 | 85 | 1008.2 |
| 20260503181405 | 54 | 6 | 10.0 | 15.0 | 0.00 | 0.01 | 0.01 | 85 | 1008.2 |
| 20260503180906 | 54 | 13 | 10.0 | 16.0 | 0.00 | 0.01 | 0.01 | 85 | 1008.2 |
| 20260503180405 | 54 | 356 | 10.0 | 20.0 | 0.00 | 0.01 | 0.01 | 85 | 1008.3 |
| 20260503175905 | 54 | 354 | 9.0 | 15.0 | 0.00 | 0.01 | 0.01 | 85 | 1008.3 |
| 20260503175405 | 54 | 2 | 10.0 | 17.0 | 0.00 | 0.01 | 0.01 | 85 | 1008.3 |
| 20260503174905 | 54 | 0 | 9.0 | 14.0 | 0.00 | 0.01 | 0.01 | 85 | 1008.4 |
| 20260503174406 | 54 | 4 | 10.0 | 16.0 | 0.00 | 0.01 | 0.01 | 85 | 1008.4 |
| 20260503173905 | 54 | 3 | 9.0 | 17.0 | 0.00 | 0.01 | 0.01 | 84 | 1008.5 |
| 20260503173406 | 54 | 355 | 9.0 | 15.0 | 0.00 | 0.01 | 0.01 | 84 | 1008.5 |
| 20260503172906 | 54 | 355 | 11.0 | 20.0 | 0.00 | 0.01 | 0.01 | 84 | 1008.6 |
| 20260503172405 | 55 | 1 | 10.0 | 20.0 | 0.00 | 0.01 | 0.01 | 84 | 1008.7 |
| 20260503171905 | 55 | 356 | 9.0 | 20.0 | 0.00 | 0.01 | 0.01 | 84 | 1008.7 |
| 20260503171405 | 55 | 354 | 9.0 | 20.0 | 0.00 | 0.01 | 0.01 | 84 | 1008.8 |
| 20260503170905 | 55 | 4 | 9.0 | 20.0 | 0.00 | 0.01 | 0.01 | 84 | 1008.9 |
| 20260503170406 | 55 | 357 | 10.0 | 14.0 | 0.00 | 0.01 | 0.01 | 84 | 1009.0 |